Location: Heidgraben
(53.7081°N, 9.6576°E)
Time: 10:16:17
(UTC+00:00)

Thor Agena Rocket - Pass Details

Date: 05 July 2020
Orbit: 759 x 808 km, 99.0° (Epoch: 05 August)

Event Time Altitude Azimuth Distance (km) Brightness Sun altitude
Rises 22:21:30 0° 16° (NNE) 3,278 7.8 -12.4°
Reaches altitude 10° 22:23:51 10° 18° (NNE) 2,338 6.9 -12.4°
Maximum altitude 22:29:00 83° 107° (ESE) 782 3.5 -12.6°
Enters shadow 22:33:17 15° 195° (SSW) 1,986 5.1 -12.8°
